Wczoraj pisaliśmy o festiwalu Bounty Builder Series na PokerStars, który rozpoczyna się już w najbliższą niedzielę. Jak się okazuje, w tym samym okresie, czyli w dniach od 11 do 25 października, podobny event odbędzie się również na GGPoker.

Zapraszamy do gry w festiwalu Bounty Hunters Series Online. Łączna pula gwarantowana tego wydarzenia wynosi aż 40.000.000$. Operator chwali się tym, że 5% rake, jaki pobierany będzie od każdego wpisowego, jest najniższy w branży.

Najważniejsze wydarzenia

  • GGMasters Daily 25$, 50K$ GTD – Codzienny freezout o godz. 17:00 (GMT).
  • Super MILLION$ Bounty 10K$, 1M$ GTD – Największe bounty w historii!
  • Beat The Pros 210$, 250K$ GTD – Wygraj wejściówkę do freerolla z 5K$ GTD.
  • Bounty King 3K$/315$/31,50$ – Olbrzymie pule gwarantowane!
  • Speed Racer – Hyper turbosy z 10 BB w stacku początkowym.

100.000$ Leaderboard

GGPoker motywuje uczestników festiwalu do wzmożonego wysiłku promocją Leaderboard, w której gracze podzielą się 100.000$. Za zdobycie określonych miejsc w turniejach gracze otrzymywać będą punkty. Na ich podstawie utworzony zostanie ranking. 100 najlepszych graczy całej serii otrzyma nagrody pieniężne.

Punkty przyznawane będą według wzoru:

Punkty w danym turnieju = f * pierwiastek(Pula w turnieju / k)

  • k – zdobyte miejsce
  • f=2.0 (wygrana w turnieju)
  • f=1.5 (stół finałowy)
  • f=1.0 (miejsce w kasie)
  • f=0.5 (bubble)

Harmonogram Bounty Hunter Series Online

Data Godzina
(czas GMT)
Nazwa eventu Wpisowe GTD
paź.11 12:00 Opener $210 210$ 100.000$
paź.11 12:30 PLO 6-Max $105 105$ 25.000$
paź.11 13:00 Turbo $5.25 5,25$ 10.000$
paź.11 13:00 Speed Racer SE $52.50 [10 BB] 52,50$ 10.000$
paź.11 13:30 Sunday Six Shooter Special $105 105$ 50.000$
paź.11 13:30 Sunday Six Shooter Turbo $10.50 10,50$ 25.000$
paź.11 14:00 Sunday Battle of Marathon $315 315$ 250.000$
paź.11 14:30 Special Edition $84 84$ 200.000$
paź.11 15:00 Speed Racer SE $21 [10 BB] 21$ 10.000$
paź.11 15:30 Main Event Special Edition $210 210$ 500.000$
paź.11 16:00 Blade Bounty Opener $5,250 5.250$ 60.000$
paź.11 16:30 Bounty High Roller SE $525 525$ 200.000$
paź.11 17:30 PLO High Roller $2,100 2.100$ 100.000$
paź.11 17:30 PLO Main Event $210 210$ 50.000$
paź.11 18:30 Super MILLION$ Bounty Hunters $10,300 10.300$ 1.000.000$
paź.11 18:30 Sunday Bounty King High Roller SE $3,150 3.150$ 300.000$
paź.11 18:30 Sunday Bounty King Special Edition $315 315$ 400.000$
paź.11 19:00 Special Edition $52.50 52,50$ 150.000$
paź.11 19:00 Speed Racer SE $31.50 [10 BB] 31,50$ 10.000$
paź.11 19:30 Special Edition $105 105$ 200.000$
paź.11 20:30 Six Shooter High Roller $1,260 1,260$ 200.000$
paź.11 21:00 Sunday Turbo Special $52.50 [Bounty Edition] 52,50$ 50.000$
paź.11 21:00 Sunday Turbo Special $5.25 [Bounty Edition] 5,25$ 10.000$
paź.11 22:00 Blade Bounty Closer $5,250 5.250$ 150.000$
paź.11 22:00 Sunday Hyper Special $52.50 [Bounty Edition] 52,50$ 50.000$
paź.11 22:00 Sunday Hyper Special $5.25 [Bounty Edition] 5,25$ 10.000$
paź.11 22:00 Blade Bounty Closer $5,250 5.250$ 75.000$
paź.11 23:00 Sunday Speed Racer SE $210 [10BB] 210$ 50.000$
paź.11 23:00 Sunday Speed Racer SE $21 [10BB] 21$ 20.000$
paź.12 00:00 Midnight Madness $126 126$ 40.000$
paź.12 00:30 Special Edition $105 105$ 30.000$
paź.12 00:30 Special Edition $10.50 10,50$ 10.000$
paź.12 02:00 Six Shooter Special $126 126$ 20.000$
paź.12 02:30 Turbo Special Edition $21 21$ 10.000$
paź.12 02:30 Turbo Special Edition $210 210$ 25.000$
paź.12 03:00 Speed Racer SE $52.50 [10 BB] 52,50$ 10.000$
paź.12 12:30 Blastoff $210 210$ 50.000$
paź.12 13:00 Speed Racer SE $52.50 [10 BB] 52,50$ 10.000$
paź.12 13:30 Six Shooter Special $105 105$ 40.000$
paź.12 13:30 Six Shooter Special $10.50 10,50$ 25.000$
paź.12 14:00 8-Max $5.25 5,25$ 20.000$
paź.12 14:00 Battle of Marathon $315 315$ 100.000$
paź.12 14:30 Special Edition $84 84$ 100.000$
paź.12 15:00 Speed Racer SE $21 [10 BB] 21$ 10.000$
paź.12 15:30 Six Shooter $252 252$ 125.000$
paź.12 16:00 Forty Stack $420 [Bounty Edition] 420$ 100.000$
paź.12 16:00 Blade Bounty Opener $5,250 5.250$ 60.000$
paź.12 16:30 Bounty Hunters High Roller SE $525 525$ 100.000$
paź.12 17:00 GGMasters Daily $25.20 [Bounty Edition] 25,20$ 50.000$
paź.12 17:30 Special Edition $210 210$ 125.000$
paź.12 18:30 Bounty King HR Main Event $3,150 3,150$ 150.000$
paź.12 18:30 Bounty King Main Event $315 315$ 150.000$
paź.12 18:30 Bounty King Mini Main Event $31.50 31,50$ 75.000$
paź.12 19:00 PLO High Roller $1,050 1,050$ 50.000$
paź.12 19:00 Omaholic Main Event $105 [Bounty Edition] 105$ 20.000$
paź.12 19:00 Speed Racer SE $31.50 [10 BB] 31,50$ 10.000$
paź.12 19:30 Special Edition $105 105$ 100.000$
paź.12 20:00 8-Max $84 [Faster Levels] 84$ 50.000$
paź.12 20:30 Six Shooter High Roller $1,260 1.260$ 100.000$
paź.12 21:00 Turbo $52.50 [Bounty Edition] 52,50$ 25.000$
paź.12 21:00 Turbo $5.25 [Bounty Edition] 5,25$ 5.000$
paź.12 22:00 Hyper Special Edition $52.50 52,50$ 25.000$
paź.12 22:00 Hyper Special Edition $5.25 5,25$ 5.000$
paź.12 22:00 Blade Bounty Closer $5,250 5,250$ 75.000$
paź.12 23:00 Speed Racer SE $10.50 [10 BB] 10,50$ 7.500$
paź.12 23:00 Speed Racer SE $105 [10 BB] 105$ 25.000$
paź.13 00:00 Midnight Madness $126 126$ 40.000$
paź.13 00:30 Special Edition $105 105$ 30.000$
paź.13 00:30 Special Edition $10.50 10,50$ 10.000$
paź.13 02:00 Six Shooter Special $126 126$ 20.000$
paź.13 02:30 Turbo Special Edition $21 21$ 10.000$
paź.13 02:30 Turbo Special Edition $210 210$ 25.000$
paź.13 03:00 Speed Racer SE $52.50 [10 BB] 52,50$ 10.000$
paź.13 12:30 Blastoff $210 210$ 50.000$
paź.13 13:00 Speed Racer SE $52.50 [10 BB] 52,50$ 10.000$
paź.13 13:30 Six Shooter Special $105 105$ 40.000$
paź.13 13:30 Six Shooter Special $10.50 10,50$ 25.000$
paź.13 14:00 8-Max $5.25 5,25$ 20.000$
paź.13 14:00 Battle of Marathon $315 315$ 100.000$
paź.13 14:30 Special Edition $84 84$ 100.000$
paź.13 14:30 High Roller $840 840$ 150.000$
paź.13 15:00 Speed Racer SE $21 [10 BB] 21$ 10.000$
paź.13 15:30 Six Shooter $252 252$ 125.000$
paź.13 16:00 Forty Stack $420 [Bounty Edition] 420$ 100.000$
paź.13 16:00 Blade Bounty Opener $5,250 5.250$ 60.000$
paź.13 16:30 Bounty Hunters High Roller SE $525 525$ 100.000$
paź.13 17:00 GGMasters Daily $25.20 [Bounty Edition] 25,20$ 50.000$
paź.13 17:30 Special Edition $210 210$ 125.000$
paź.13 18:30 Bounty King HR Main Event $3,150 3.150$ 150.000$
paź.13 18:30 Bounty King Main Event $315 315$ 150.000$
paź.13 18:30 Bounty King Mini Main Event $31.50 31,50$ 75.000$
paź.13 19:00 PLO High Roller $1,050 1.050$ 50.000$
paź.13 19:00 Omaholic Main Event $105 [Bounty Edition] 105$ 20.000$
paź.13 19:00 Speed Racer SE $31.50 [10 BB] 31,50$ 10.000$
paź.13 19:30 Special Edition $105 105$ 100.000$
paź.13 20:00 8-Max $84 [Faster Levels] 84$ 50.000$
paź.13 20:30 Six Shooter High Roller $1,260 1,260$ 100.000$
paź.13 21:00 Turbo $52.50 [Bounty Edition] 52,50$ 25.000$
paź.13 21:00 Turbo $5.25 [Bounty Edition] 5,25$ 5.000$
paź.13 22:00 Hyper Special Edition $52.50 52,50$ 25.000$
paź.13 22:00 Hyper Special Edition $5.25 5,25$ 5.000$
paź.13 22:00 Blade Bounty Closer $5,250 5.250$ 75.000$
paź.13 23:00 Speed Racer SE $10.50 [10 BB] 10,50$ 7.500$
paź.13 23:00 Speed Racer SE $105 [10 BB] 105$ 25.000$
paź.14 00:00 Midnight Madness $126 126$ 40.000$
paź.14 00:30 Special Edition $105 105$ 30.000$
paź.14 00:30 Special Edition $10.50 10,50$ 10.000$
paź.14 02:00 Six Shooter Special $126 126$ 20.000$
paź.14 02:30 Turbo Special Edition $21 21$ 10.000$
paź.14 02:30 Turbo Special Edition $210 210$ 25.000$
paź.14 03:00 Speed Racer SE $52.50 [10 BB] 52,50$ 10.000$
paź.14 12:30 Blastoff $210 210$ 50.000$
paź.14 13:00 Speed Racer SE $52.50 [10 BB] 52,50$ 10.000$
paź.14 13:30 Six Shooter Special $105 105$ 40.000$
paź.14 13:30 Six Shooter Special $10.50 10,50$ 25.000$
paź.14 14:00 8-Max $5.25 5,25$ 20.000$
paź.14 14:00 Battle of Marathon $315 315$ 100.000$
paź.14 14:30 Special Edition $84 84$ 100.000$
paź.14 15:00 Speed Racer SE $21 [10 BB] 21$ 10.000$
paź.14 15:30 Six Shooter $252 252$ 100.000$
paź.14 16:00 Forty Stack $420 [Bounty Edition] 420$ 100.000$
paź.14 16:00 Blade Bounty Opener $5,250 5.250$ 60.000$
paź.14 16:30 Bounty Hunters High Roller SE $525 525$ 100.000$
paź.14 17:00 GGMasters Daily $25.20 [Bounty Edition] 25,20$ 50.000$
paź.14 17:30 Special Edition $210 210$ 125.000$
paź.14 18:30 Bounty King HR Main Event $3,150 3,150$ 150.000$
paź.14 18:30 Bounty King Main Event $315 315$ 150.000$
paź.14 18:30 Bounty King Mini Main Event $31.50 31,50$ 75.000$
paź.14 19:00 PLO High Roller $1,050 1.050$ 50.000$
paź.14 19:00 Omaholic Main Event $105 [Bounty Edition] 105$ 20.000$
paź.14 19:00 Speed Racer SE $31.50 [10 BB] 31,50$ 10.000$
paź.14 19:30 Special Edition $105 105$ 100.000$
paź.14 20:00 8-Max $84 [Faster Levels] 84$ 50.000$
paź.14 20:30 Six Shooter High Roller $1,260 1.260$ 100.000$
paź.14 21:00 Turbo $52.50 [Bounty Edition] 52,50$ 25.000$
paź.14 21:00 Turbo $5.25 [Bounty Edition] 5,25$ 5.000$
paź.14 22:00 Hyper Special Edition $52.50 52,50$ 25.000$
paź.14 22:00 Hyper Special Edition $5.25 5,25$ 5.000$
paź.14 22:00 Blade Bounty Closer $5,250 5,250$ 75.000$
paź.14 23:00 Speed Racer SE $10.50 [10 BB] 10,50$ 7.500$
paź.14 23:00 Speed Racer SE $105 [10 BB] 105$ 25.000$
paź.15 00:00 Midnight Madness $126 126$ 40.000$
paź.15 00:30 Special Edition $105 105$ 30.000$
paź.15 00:30 Special Edition $10.50 10,50$ 10.000$
paź.15 02:00 Six Shooter Special $126 126$ 20.000$
paź.15 02:30 Turbo Special Edition $21 21$ 10.000$
paź.15 02:30 Turbo Special Edition $210 210$ 25.000$
paź.15 03:00 Speed Racer SE $52.50 [10 BB] 52,50$ 10.000$
paź.15 12:30 Blastoff $210 210$ 50.000$
paź.15 13:00 Speed Racer SE $52.50 [10 BB] 52,50$ 10.000$
paź.15 13:30 Six Shooter Special $105 105$ 40.000$
paź.15 13:30 Six Shooter Special $10.50 10,50$ 25.000$
paź.15 14:00 8-Max $5.25 5,25$ 20.000$
paź.15 14:00 Battle of Marathon $315 315$ 100.000$
paź.15 14:30 Special Edition $84 84$ 100.000$
paź.15 15:00 Speed Racer SE $21 [10 BB] 21$ 10.000$
paź.15 15:30 Six Shooter $252 252$ 100.000$
paź.15 16:00 Forty Stack $420 [Bounty Edition] 420$ 100.000$
paź.15 16:00 Blade Bounty Opener $5,250 5.250$ 60.000$
paź.15 16:30 Bounty Hunters High Roller SE $525 525$ 100.000$
paź.15 17:00 GGMasters Daily $25.20 [Bounty Edition] 25,20$ 50.000$
paź.15 17:30 Special Edition $210 210$ 125.000$
paź.15 18:30 Bounty King HR Main Event $3,150 3.150$ 150.000$
paź.15 18:30 Bounty King Main Event $315 315$ 150.000$
paź.15 18:30 Bounty King Mini Main Event $31.50 31,50$ 75.000$
paź.15 19:00 PLO High Roller $1,050 1.050$ 50.000$
paź.15 19:00 Omaholic Main Event $105 [Bounty Edition] 105$ 20.000$
paź.15 19:00 Speed Racer SE $31.50 [10 BB] 31,50$ 10.000$
paź.15 19:30 Special Edition $105 105$ 100.000$
paź.15 20:00 8-Max $84 [Faster Levels] 84$ 50.000$
paź.15 20:30 Six Shooter High Roller $1,260 1,260$ 100.000$
paź.15 21:00 Turbo $52.50 [Bounty Edition] 52,50$ 25.000$
paź.15 21:00 Turbo $5.25 [Bounty Edition] 5,25$ 5.000$
paź.15 22:00 Hyper Special Edition $52.50 52,50$ 25.000$
paź.15 22:00 Hyper Special Edition $5.25 5,25$ 5.000$
paź.15 22:00 Blade Bounty Closer $5,250 5.250$ 75.000$
paź.15 23:00 Speed Racer SE $10.50 [10 BB] 10,50$ 7.500$
paź.15 23:00 Speed Racer SE $105 [10 BB] 105$ 25.000$
paź.16 00:00 Midnight Madness $126 126$ 40.000$
paź.16 00:30 Special Edition $105 105$ 30.000$
paź.16 00:30 Special Edition $10.50 10,50$ 10.000$
paź.16 02:00 Six Shooter Special $126 126$ 20.000$
paź.16 02:30 Turbo Special Edition $21 21$ 10.000$
paź.16 02:30 Turbo Special Edition $210 210$ 25.000$
paź.16 03:00 Speed Racer SE $52.50 [10 BB] 52,50$ 10.000$
paź.16 12:30 Blastoff $210 210$ 50.000$
paź.16 13:00 Speed Racer SE $52.50 [10 BB] 52,50$ 10.000$
paź.16 13:30 Six Shooter Special $105 105$ 40.000$
paź.16 13:30 Six Shooter Special $10.50 10,50$ 25.000$
paź.16 14:00 8-Max $5.25 5,25$ 20.000$
paź.16 14:00 Battle of Marathon $315 315$ 100.000$
paź.16 14:30 Special Edition $84 84$ 100.000$
paź.16 15:00 Speed Racer SE $21 [10 BB] 21$ 10.000$
paź.16 15:30 Six Shooter $252 252$ 100.000$
paź.16 16:00 Forty Stack $420 [Bounty Edition] 420$ 100.000$
paź.16 16:00 Blade Bounty Opener $5,250 5.250$ 60.000$
paź.16 16:30 Bounty Hunters High Roller SE $525 525$ 100.000$
paź.16 17:00 GGMasters Daily $25.20 [Bounty Edition] 25,20$ 50.000$
paź.16 17:30 Special Edition $210 210$ 125.000$
paź.16 18:30 Bounty King HR Main Event $3,150 3.150$ 150.000$
paź.16 18:30 Bounty King Main Event $315 315$ 150.000$
paź.16 18:30 Bounty King Mini Main Event $31.50 31,50$ 75.000$
paź.16 19:00 PLO High Roller $1,050 1.050$ 50.000$
paź.16 19:00 Omaholic Main Event $105 [Bounty Edition] 105$ 20.000$
paź.16 19:00 Speed Racer SE $31.50 [10 BB] 31,50$ 10.000$
paź.16 19:30 Special Edition $105 105$ 100.000$
paź.16 20:00 8-Max $84 [Faster Levels] 84$ 50.000$
paź.16 20:30 Six Shooter High Roller $1,260 1.260$ 100.000$
paź.16 21:00 Turbo $52.50 [Bounty Edition] 52,50$ 25.000$
paź.16 21:00 Turbo $5.25 [Bounty Edition] 5,25$ 5.000$
paź.16 22:00 Hyper Special Edition $52.50 52,50$ 25.000$
paź.16 22:00 Hyper Special Edition $5.25 5,25$ 5.000$
paź.16 22:00 Blade Bounty Closer $5,250 5,250$ 75.000$
paź.16 23:00 Speed Racer SE $10.50 [10 BB] 10,50$ 7.500$
paź.16 23:00 Speed Racer SE $105 [10 BB] 105$ 25.000$
paź.17 00:00 Midnight Madness $126 126$ 40.000$
paź.17 00:30 Special Edition $105 105$ 30.000$
paź.17 00:30 Special Edition $10.50 10,50$ 10.000$
paź.17 02:00 Six Shooter Special $126 126$ 20.000$
paź.17 02:30 Turbo Special Edition $21 21$ 10.000$
paź.17 02:30 Turbo Special Edition $210 210$ 25.000$
paź.17 03:00 Speed Racer SE $52.50 [10 BB] 52,50$ 10.000$
paź.17 11:00 Saturday Starter $105 105$ 25.000$
paź.17 11:30 Saturday Speed Racer Open $42 [10BB] 42$ 10.000$
paź.17 12:30 Blastoff $210 210$ 50.000$
paź.17 13:00 Speed Racer SE $52.50 [10 BB] 52,50$ 10.000$
paź.17 13:30 Six Shooter Special $105 105$ 40.000$
paź.17 13:30 Six Shooter Special $10.50 10,50$ 25.000$
paź.17 14:00 8-Max $5.25 5,25$ 20.000$
paź.17 14:00 Battle of Marathon $315 315$ 100.000$
paź.17 14:30 Special Edition $84 84$ 100.000$
paź.17 15:00 Speed Racer SE $21 [10 BB] 21$ 10.000$
paź.17 15:30 Six Shooter $252 252$ 125.000$
paź.17 16:00 Forty Stack $420 [Bounty Edition] 420$ 100.000$
paź.17 16:00 Blade Bounty Opener $5,250 5.250$ 60.000$
paź.17 16:30 Bounty Hunters High Roller SE $525 525$ 100.000$
paź.17 17:00 GGMasters Daily $25.20 [Bounty Edition] 25,20$ 50.000$
paź.17 17:00 Beat the Pros Special Edition $210 210$ 250.000$
paź.17 18:30 Bounty King HR Main Event $3,150 3.150$ 150.000$
paź.17 18:30 Bounty King Main Event $315 315$ 150.000$
paź.17 18:30 Bounty King Mini Main Event $31.50 31,50$ 75.000$
paź.17 19:00 PLO High Roller $1,050 1,050$ 50.000$
paź.17 19:00 Omaholic Main Event $105 [Bounty Edition] 105$ 20.000$
paź.17 19:00 Speed Racer SE $31.50 [10 BB] 31,50$ 10.000$
paź.17 19:30 Special Edition $105 105$ 100.000$
paź.17 20:00 8-Max $84 84$ 50.000$
paź.17 20:30 Six Shooter High Roller $1,260 1.260$ 100.000$
paź.17 21:00 Turbo $52.50 [Bounty Edition] 52,50$ 25.000$
paź.17 21:00 Turbo $5.25 [Bounty Edition] 5,25$ 5.000$
paź.17 22:00 Hyper Special Edition $52.50 52,50$ 25.000$
paź.17 22:00 Hyper Special Edition $5.25 5,25$ 5.000$
paź.17 22:00 Blade Bounty Closer $5,250 5.250$ 75.000$
paź.17 23:00 Saturday Speed Racer Closer $42 [10BB] 42$ 10.000$
paź.18 00:00 Midnight Madness $126 126$ 40.000$
paź.18 00:30 Special Edition $105 105$ 30.000$
paź.18 00:30 Special Edition $10.50 10,50$ 10.000$
paź.18 02:00 Six Shooter Special $126 126$ 20.000$
paź.18 02:30 Turbo Special Edition $21 21$ 10.000$
paź.18 02:30 Turbo Special Edition $210 210$ 25.000$
paź.18 03:00 Speed Racer SE $52.50 [10 BB] 52,50$ 10.000$
paź.18 12:00 Sunday Blastoff $210 210$ 100.000$
paź.18 12:30 PLO 6-Max $105 105$ 25.000$
paź.18 13:00 Turbo $5.25 5,25$ 10.000$
paź.18 13:00 Speed Racer SE $52.50 [10 BB] 52,50$ 10.000$
paź.18 13:30 Sunday Six Shooter Special $105 105$ 50.000$
paź.18 13:30 Sunday Six Shooter Turbo $10.50 10,50$ 25.000$
paź.18 14:00 Sunday Battle of Marathon $315 315$ 250.000$
paź.18 14:30 Special Edition $84 84$ 200.000$
paź.18 14:30 High Roller $840 840$ 250.000$
paź.18 15:00 Speed Racer SE $21 [10 BB] 21$ 10.000$
paź.18 15:30 Main Event Special Edition $210 210$ 500.000$
paź.18 16:00 Blade Bounty Opener $5,250 5.250$ 60.000$
paź.18 16:30 Bounty High Roller SE $525 525$ 200.000$
paź.18 17:00 GGMasters $157.50 [Bounty Edition] 157,50$ 500.000$
paź.18 17:00 GGMasters High Rollers $1,050 [Bounty Edition] 1.050$ 1.000.000$
paź.18 17:30 PLO High Roller $2,100 2,100$ 100.000$
paź.18 17:30 PLO Main Event $210 210$ 50.000$
paź.18 18:30 Super MILLION$ Bounty Hunters $10,300 10.300$ 1.000.000$
paź.18 18:30 Sunday Bounty King High Roller SE $3,150 3.150$ 300.000$
paź.18 18:30 Sunday Bounty King Special Edition $315 315$ 400.000$
paź.18 19:00 Special Edition $52.50 52,50$ 150.000$
paź.18 19:00 Speed Racer SE $31.50 [10 BB] 31,50$ 10.000$
paź.18 19:30 Special Edition $105 105$ 200.000$
paź.18 20:30 Six Shooter High Roller $1,260 1.260$ 200.000$
paź.18 21:00 Sunday Turbo Special $52.50 [Bounty Edition] 52,50$ 50.000$
paź.18 21:00 Sunday Turbo Special $5.25 [Bounty Edition] 5,25$ 10.000$
paź.18 22:00 Blade Bounty Closer $5,250 5.250$ 150.000$
paź.18 22:00 Sunday Hyper Special $52.50 [Bounty Edition] 52,50$ 50.000$
paź.18 22:00 Sunday Hyper Special $5.25 [Bounty Edition] 5,25$ 10.000$
paź.18 22:00 Blade Bounty Closer $5,250 5.250$ 75.000$
paź.18 23:00 Sunday Speed Racer SE $210 [10BB] 210$ 50.000$
paź.18 23:00 Sunday Speed Racer SE $21 [10BB] 21$ 20.000$
paź.19 00:00 Midnight Madness $126 126$ 40.000$
paź.19 00:30 Special Edition $105 105$ 30.000$
paź.19 00:30 Special Edition $10.50 10,50$ 10.000$
paź.19 02:00 Six Shooter Special $126 126$ 20.000$
paź.19 02:30 Turbo Special Edition $21 21$ 10.000$
paź.19 02:30 Turbo Special Edition $210 210$ 25.000$
paź.19 03:00 Speed Racer SE $52.50 [10 BB] 52,50$ 10.000$
paź.19 12:30 Blastoff $210 210$ 50.000$
paź.19 13:00 Speed Racer SE $52.50 [10 BB] 52,50$ 10.000$
paź.19 13:30 Six Shooter Special $105 105$ 40.000$
paź.19 13:30 Six Shooter Special $10.50 10,50$ 25.000$
paź.19 14:00 8-Max $5.25 5,25$ 20.000$
paź.19 14:00 Battle of Marathon $315 315$ 100.000$
paź.19 14:30 Special Edition $84 84$ 100.000$
paź.19 15:00 Speed Racer SE $21 [10 BB] 21$ 10.000$
paź.19 15:30 Six Shooter $252 252$ 100.000$
paź.19 16:00 Forty Stack $420 [Bounty Edition] 420$ 100.000$
paź.19 16:00 Blade Bounty Opener $5,250 5.250$ 60.000$
paź.19 16:30 Bounty Hunters High Roller SE $525 525$ 100.000$
paź.19 17:00 GGMasters Daily $25.20 [Bounty Edition] 25,20$ 50.000$
paź.19 17:30 Special Edition $210 210$ 125.000$
paź.19 18:30 Bounty King HR Main Event $3,150 3.150$ 150.000$
paź.19 18:30 Bounty King Main Event $315 315$ 150.000$
paź.19 18:30 Bounty King Mini Main Event $31.50 31,50$ 75.000$
paź.19 19:00 PLO High Roller $1,050 1.050$ 50.000$
paź.19 19:00 Omaholic Main Event $105 [Bounty Edition] 105$ 20.000$
paź.19 19:00 Speed Racer SE $31.50 [10 BB] 31,50$ 10.000$
paź.19 19:30 Special Edition $105 105$ 100.000$
paź.19 20:00 8-Max $84 [Faster Levels] 84$ 50.000$
paź.19 20:30 Six Shooter High Roller $1,260 1,260$ 100.000$
paź.19 21:00 Turbo $52.50 [Bounty Edition] 52,50$ 25.000$
paź.19 21:00 Turbo $5.25 [Bounty Edition] 5,25$ 5.000$
paź.19 22:00 Hyper Special Edition $52.50 52,50$ 25.000$
paź.19 22:00 Hyper Special Edition $5.25 5,25$ 5.000$
paź.19 22:00 Blade Bounty Closer $5,250 5.250$ 75.000$
paź.19 23:00 Speed Racer SE $10.50 [10 BB] 10,50$ 7.500$
paź.19 23:00 Speed Racer SE $105 [10 BB] 105$ 25.000$
paź.20 00:00 Midnight Madness $126 126$ 40.000$
paź.20 00:30 Special Edition $105 105$ 30.000$
paź.20 00:30 Special Edition $10.50 10,50$ 10.000$
paź.20 02:00 Six Shooter Special $126 126$ 20.000$
paź.20 02:30 Turbo Special Edition $21 21$ 10.000$
paź.20 02:30 Turbo Special Edition $210 210$ 25.000$
paź.20 03:00 Speed Racer SE $52.50 [10 BB] 52,50$ 10.000$
paź.20 12:30 Blastoff $210 210$ 50.000$
paź.20 13:00 Speed Racer SE $52.50 [10 BB] 52,50$ 10.000$
paź.20 13:30 Six Shooter Special $105 105$ 40.000$
paź.20 13:30 Six Shooter Special $10.50 10,50$ 25.000$
paź.20 14:00 8-Max $5.25 5,25$ 20.000$
paź.20 14:00 Battle of Marathon $315 315$ 100.000$
paź.20 14:30 Special Edition $84 84$ 100.000$
paź.20 15:00 Speed Racer SE $21 [10 BB] 21$ 10.000$
paź.20 15:30 Six Shooter $252 252$ 100.000$
paź.20 16:00 Forty Stack $420 [Bounty Edition] 420$ 100.000$
paź.20 16:00 Blade Bounty Opener $5,250 5.250$ 60.000$
paź.20 16:30 Bounty Hunters High Roller SE $525 525$ 100.000$
paź.20 17:00 GGMasters Daily $25.20 [Bounty Edition] 25,20$ 50.000$
paź.20 17:30 Special Edition $210 210$ 125.000$
paź.20 18:30 Bounty King HR Main Event $3,150 3.150$ 150.000$
paź.20 18:30 Bounty King Main Event $315 315$ 150.000$
paź.20 18:30 Bounty King Mini Main Event $31.50 31,50$ 75.000$
paź.20 19:00 PLO High Roller $1,050 1.050$ 50.000$
paź.20 19:00 Omaholic Main Event $105 [Bounty Edition] 105$ 20.000$
paź.20 19:00 Speed Racer SE $31.50 [10 BB] 31,50$ 10.000$
paź.20 19:30 Special Edition $105 105$ 100.000$
paź.20 20:00 Blade Big Game Hunter $5,250 5.250$ 200.000$
paź.20 20:00 8-Max $84 [Faster Levels] 84$ 50.000$
paź.20 20:30 Six Shooter High Roller $1,260 1.260$ 100.000$
paź.20 21:00 Turbo $52.50 [Bounty Edition] 52,50$ 25.000$
paź.20 21:00 Turbo $5.25 [Bounty Edition] 5,25$ 5.000$
paź.20 22:00 Hyper Special Edition $52.50 52,50$ 25.000$
paź.20 22:00 Hyper Special Edition $5.25 5,25$ 5.000$
paź.20 22:00 Blade Bounty Closer $5,250 5,250$ 75.000$
paź.20 23:00 Speed Racer SE $10.50 [10 BB] 10,50$ 7.500$
paź.20 23:00 Speed Racer SE $105 [10 BB] 105$ 25.000$
paź.21 00:00 Midnight Madness $126 126$ 40.000$
paź.21 00:30 Special Edition $105 105$ 30.000$
paź.21 00:30 Special Edition $10.50 10,50$ 10.000$
paź.21 02:00 Six Shooter Special $126 126$ 20.000$
paź.21 02:30 Turbo Special Edition $21 21$ 10.000$
paź.21 02:30 Turbo Special Edition $210 210$ 25.000$
paź.21 03:00 Speed Racer SE $52.50 [10 BB] 52,50$ 10.000$
paź.21 12:30 Blastoff $210 210$ 50.000$
paź.21 13:00 Speed Racer SE $52.50 [10 BB] 52,50$ 10.000$
paź.21 13:30 Six Shooter Special $105 105$ 40.000$
paź.21 13:30 Six Shooter Special $10.50 10,50$ 25.000$
paź.21 14:00 8-Max $5.25 5,25$ 20.000$
paź.21 14:00 Battle of Marathon $315 315$ 100.000$
paź.21 14:30 Special Edition $84 84$ 100.000$
paź.21 14:30 High Roller $840 840$ 150.000$
paź.21 15:00 Speed Racer SE $21 [10 BB] 21$ 10.000$
paź.21 15:30 Six Shooter $252 252$ 100.000$
paź.21 16:00 Forty Stack $420 [Bounty Edition] 420$ 100.000$
paź.21 16:00 Blade Bounty Opener $5,250 5,250$ 60.000$
paź.21 16:30 Bounty Hunters High Roller SE $525 525$ 100.000$
paź.21 17:00 GGMasters Daily $25.20 [Bounty Edition] 25,20$ 50.000$
paź.21 17:30 Special Edition $210 210$ 125.000$
paź.21 18:30 Bounty King HR Main Event $3,150 3,150$ 150.000$
paź.21 18:30 Bounty King Main Event $315 315$ 150.000$
paź.21 18:30 Bounty King Mini Main Event $31.50 31,50$ 75.000$
paź.21 19:00 PLO High Roller $1,050 1,050$ 50.000$
paź.21 19:00 Omaholic Main Event $105 [Bounty Edition] 105$ 20.000$
paź.21 19:00 Speed Racer SE $31.50 [10 BB] 31,50$ 10.000$
paź.21 19:30 Special Edition $105 105$ 100.000$
paź.21 20:00 8-Max $84 [Faster Levels] 84$ 50.000$
paź.21 20:30 Six Shooter High Roller $1,260 1.260$ 100.000$
paź.21 21:00 Turbo $52.50 [Bounty Edition] 52,50$ 25.000$
paź.21 21:00 Turbo $5.25 [Bounty Edition] 5,25$ 5.000$
paź.21 22:00 Hyper Special Edition $52.50 52,50$ 25.000$
paź.21 22:00 Blade Bounty Closer $5,250 5.250$ 75.000$
paź.21 23:00 Speed Racer SE $10.50 [10 BB] 10,50$ 7.500$
paź.21 23:00 Speed Racer SE $105 [10 BB] 105$ 25.000$
paź.22 00:00 Midnight Madness $126 126$ 40.000$
paź.22 00:30 Special Edition $105 105$ 30.000$
paź.22 00:30 Special Edition $10.50 10,50$ 10.000$
paź.22 02:00 Six Shooter Special $126 126$ 20.000$
paź.22 02:30 Turbo Special Edition $21 21$ 10.000$
paź.22 02:30 Turbo Special Edition $210 210$ 25.000$
paź.22 03:00 Speed Racer SE $52.50 [10 BB] 52,50$ 10.000$
paź.22 12:30 Blastoff $210 210$ 50.000$
paź.22 13:00 Speed Racer SE $52.50 [10 BB] 52,50$ 10.000$
paź.22 13:30 Six Shooter Special $105 105$ 40.000$
paź.22 13:30 Six Shooter Special $10.50 10,50$ 25.000$
paź.22 14:00 8-Max $5.25 5,25$ 20.000$
paź.22 14:00 Battle of Marathon $315 315$ 100.000$
paź.22 14:30 Special Edition $84 84$ 100.000$
paź.22 15:00 Speed Racer SE $21 [10 BB] 21$ 10.000$
paź.22 15:30 Six Shooter $252 252$ 100.000$
paź.22 16:00 Forty Stack $420 [Bounty Edition] 420$ 100.000$
paź.22 16:00 Blade Bounty Opener $5,250 5,250$ 60.000$
paź.22 16:30 Bounty Hunters High Roller SE $525 525$ 100.000$
paź.22 17:00 GGMasters Daily $25.20 [Bounty Edition] 25,20$ 50.000$
paź.22 17:30 Special Edition $210 210$ 125.000$
paź.22 18:30 Bounty King HR Main Event $3,150 3,150$ 150.000$
paź.22 18:30 Bounty King Main Event $315 315$ 150.000$
paź.22 18:30 Bounty King Mini Main Event $31.50 31,50$ 75.000$
paź.22 19:00 PLO High Roller $1,050 1,050$ 50.000$
paź.22 19:00 Omaholic Main Event $105 [Bounty Edition] 105$ 20.000$
paź.22 19:00 Speed Racer SE $31.50 [10 BB] 31,50$ 10.000$
paź.22 19:30 Special Edition $105 105$ 100.000$
paź.22 20:00 8-Max $84 [Faster Levels] 84$ 50.000$
paź.22 20:30 Six Shooter High Roller $1,260 1,260$ 100.000$
paź.22 21:00 Turbo $52.50 [Bounty Edition] 52,50$ 25.000$
paź.22 21:00 Turbo $5.25 [Bounty Edition] 5,25$ 5.000$
paź.22 22:00 Hyper Special Edition $5.25 5,25$ 5.000$
paź.22 22:00 Hyper Special Edition $52.50 52,50$ 25.000$
paź.22 22:00 Blade Bounty Closer $5,250 5.250$ 75.000$
paź.22 23:00 Speed Racer SE $10.50 [10 BB] 10,50$ 7.500$
paź.22 23:00 Speed Racer SE $105 [10 BB] 105$ 25.000$
paź.23 00:00 Midnight Madness $126 126$ 40.000$
paź.23 00:30 Special Edition $105 105$ 30.000$
paź.23 00:30 Special Edition $10.50 10,50$ 10.000$
paź.23 02:00 Six Shooter Special $126 126$ 20.000$
paź.23 02:30 Turbo Special Edition $21 21$ 10.000$
paź.23 02:30 Turbo Special Edition $210 210$ 25.000$
paź.23 03:00 Speed Racer SE $52.50 [10 BB] 52,50$ 10.000$
paź.23 12:30 Blastoff $210 210$ 50.000$
paź.23 13:00 Speed Racer SE $52.50 [10 BB] 52,50$ 10.000$
paź.23 13:30 Six Shooter Special $105 105$ 40.000$
paź.23 13:30 Six Shooter Special $10.50 10,50$ 25.000$
paź.23 14:00 8-Max $5.25 5,25$ 20.000$
paź.23 14:00 Battle of Marathon $315 315$ 100.000$
paź.23 14:30 Special Edition $84 84$ 75.000$
paź.23 15:00 Speed Racer SE $21 [10 BB] 21$ 10.000$
paź.23 15:30 Six Shooter $252 252$ 125.000$
paź.23 16:00 Forty Stack $420 [Bounty Edition] 420$ 100.000$
paź.23 16:00 Blade Bounty Opener $5,250 5,250$ 60.000$
paź.23 16:30 Bounty Hunters High Roller SE $525 525$ 100.000$
paź.23 17:00 GGMasters Daily $25.20 [Bounty Edition] 25,20$ 50.000$
paź.23 17:30 Special Edition $210 210$ 125.000$
paź.23 18:30 Bounty King HR Main Event $3,150 3.150$ 150.000$
paź.23 18:30 Bounty King Main Event $315 315$ 150.000$
paź.23 18:30 Bounty King Mini Main Event $31.50 31,50$ 75.000$
paź.23 19:00 PLO High Roller $1,050 1,050$ 50.000$
paź.23 19:00 Omaholic Main Event $105 [Bounty Edition] 105$ 20.000$
paź.23 19:00 Speed Racer SE $31.50 [10 BB] 31,50$ 10.000$
paź.23 19:30 Special Edition $105 105$ 100.000$
paź.23 20:00 8-Max $84 [Faster Levels] 84$ 50.000$
paź.23 20:30 Six Shooter High Roller $1,260 1,260$ 100.000$
paź.23 21:00 Turbo $52.50 [Bounty Edition] 52,50$ 25.000$
paź.23 21:00 Turbo $5.25 [Bounty Edition] 5,25$ 5.000$
paź.23 22:00 Hyper Special Edition $5.25 5,25$ 5.000$
paź.23 22:00 Hyper Special Edition $52.50 52,50$ 25.000$
paź.23 22:00 Blade Bounty Closer $5,250 5.250$ 75.000$
paź.23 23:00 Speed Racer SE $10.50 [10 BB] 10,50$ 7.500$
paź.23 23:00 Speed Racer SE $105 [10 BB] 105$ 25.000$
paź.24 00:00 Midnight Madness $126 126$ 40.000$
paź.24 00:30 Special Edition $105 105$ 30.000$
paź.24 00:30 Special Edition $10.50 10,50$ 10.000$
paź.24 02:00 Six Shooter Special $126 126$ 20.000$
paź.24 02:30 Turbo Special Edition $21 21$ 10.000$
paź.24 02:30 Turbo Special Edition $210 210$ 25.000$
paź.24 03:00 Speed Racer SE $52.50 [10 BB] 52,50$ 10.000$
paź.24 11:00 Saturday Starter $105 105$ 25.000$
paź.24 11:30 Saturday Speed Racer Open $42 [10BB] 42$ 10.000$
paź.24 12:30 Blastoff $210 210$ 50.000$
paź.24 13:00 Speed Racer SE $52.50 [10 BB] 52,50$ 10.000$
paź.24 13:30 Six Shooter Special $105 105$ 40.000$
paź.24 13:30 Six Shooter Special $10.50 10,50$ 25.000$
paź.24 14:00 8-Max $5.25 5,25$ 20.000$
paź.24 14:00 Battle of Marathon $315 315$ 100.000$
paź.24 14:30 Special Edition $84 84$ 100.000$
paź.24 15:00 Speed Racer SE $21 [10 BB] 21$ 10.000$
paź.24 15:30 Six Shooter $252 252$ 125.000$
paź.24 16:00 Forty Stack $420 [Bounty Edition] 420$ 100.000$
paź.24 16:00 Blade Bounty Opener $5,250 5.250$ 60.000$
paź.24 16:30 Bounty Hunters High Roller SE $525 525$ 100.000$
paź.24 17:00 GGMasters Daily $25.20 [Bounty Edition] 25,20$ 50.000$
paź.24 17:00 Beat the Pros Special Edition $210 210$ 250.000$
paź.24 18:30 Bounty King HR Main Event $3,150 3.150$ 150.000$
paź.24 18:30 Bounty King Main Event $315 315$ 150.000$
paź.24 18:30 Bounty King Mini Main Event $31.50 31,50$ 75.000$
paź.24 19:00 PLO High Roller $1,050 1.050$ 50.000$
paź.24 19:00 Omaholic Main Event $105 [Bounty Edition] 105$ 20.000$
paź.24 19:00 Speed Racer SE $31.50 [10 BB] 31,50$ 10.000$
paź.24 19:30 Special Edition $105 105$ 100.000$
paź.24 20:00 8-Max $84 84$ 50.000$
paź.24 20:30 Six Shooter High Roller $1,260 1,260$ 100.000$
paź.24 21:00 Turbo $52.50 [Bounty Edition] 52,50$ 25.000$
paź.24 21:00 Turbo $5.25 [Bounty Edition] 5,25$ 5.000$
paź.24 22:00 Hyper Special Edition $5.25 5,25$ 5.000$
paź.24 22:00 Hyper Special Edition $52.50 52,50$ 25.000$
paź.24 22:00 Blade Bounty Closer $5,250 5,250$ 75.000$
paź.24 23:00 Saturday Speed Racer Closer $42 [10BB] 42$ 10.000$
paź.25 00:00 Midnight Madness $126 126$ 40.000$
paź.25 00:30 Special Edition $105 105$ 30.000$
paź.25 00:30 Special Edition $10.50 10,50$ 10.000$
paź.25 02:00 Six Shooter Special $126 126$ 20.000$
paź.25 02:30 Turbo Special Edition $21 21$ 10.000$
paź.25 02:30 Turbo Special Edition $210 210$ 25.000$
paź.25 03:00 Speed Racer SE $52.50 [10 BB] 52,50$ 10.000$
paź.25 12:30 Sunday Blastoff $210 210$ 100.000$
paź.25 12:30 PLO 6-Max $105 105$ 25.000$
paź.25 13:00 Turbo $5.25 5,25$ 10.000$
paź.25 13:00 Speed Racer SE $52.50 [10 BB] 52,50$ 10.000$
paź.25 13:30 Sunday Six Shooter Special $105 105$ 50.000$
paź.25 13:30 Sunday Six Shooter Turbo $10.50 10,50$ 25.000$
paź.25 14:00 Sunday Battle of Marathon $315 315$ 250.000$
paź.25 14:30 Special Edition $84 84$ 200.000$
paź.25 15:00 Speed Racer SE $21 [10 BB] 21$ 10.000$
paź.25 15:30 Main Event Special Edition $210 210$ 500.000$
paź.25 16:00 Blade Bounty Opener $5,250 5.250$ 60.000$
paź.25 16:30 Bounty High Roller SE $525 525$ 200.000$
paź.25 17:00 GGMasters $157.50 [Bounty Edition] 157,50$ 500.000$
paź.25 17:00 GGMasters High Rollers $1,050 [Bounty Edition] 1.050$ 1.000.000$
paź.25 17:30 PLO High Roller $2,100 2.100$ 100.000$
paź.25 17:30 PLO Main Event $210 210$ 50.000$
paź.25 18:30 Super MILLION$ Bounty Hunters $10,300 10.300$ 1.000.000$
paź.25 18:30 Sunday Bounty King High Roller SE $3,150 3,150$ 300.000$
paź.25 18:30 Sunday Bounty King Special Edition $315 315$ 400.000$
paź.25 19:00 Special Edition $52.50 52,50$ 150.000$
paź.25 19:00 Speed Racer SE $31.50 [10 BB] 31,50$ 10.000$
paź.25 19:30 Special Edition $105 105$ 200.000$
paź.25 20:30 Six Shooter High Roller $1,260 1,260$ 200.000$
paź.25 21:00 Sunday Turbo Special $52.50 [Bounty Edition] 52,50$ 50.000$
paź.25 21:00 Sunday Turbo Special $5.25 [Bounty Edition] 5,25$ 10.000$
paź.25 22:00 Hyper Special Edition $5.25 5,25$ 5.000$
paź.25 22:00 Blade Bounty Closer $5,250 5,250$ 150.000$
paź.25 22:00 Sunday Hyper Special $52.50 [Bounty Edition] 52,50$ 50.000$
paź.25 22:00 Sunday Hyper Special $5.25 [Bounty Edition] 5,25$ 10.000$
paź.25 22:00 Sunday Hyper Special $5.25 [Bounty Edition] 5,25$ 10.000$
paź.25 22:00 Blade Bounty Closer $5,250 5.250$ 75.000$
paź.25 23:00 Sunday Speed Racer SE $210 [10BB] 210$ 50.000$
paź.25 23:00 Sunday Speed Racer SE $21 [10BB] 21$ 20.000$

Zachęcamy Was do udziału w Bounty Hunter Series Online i do rywalizacji o część z 40.000.000$. Jeśli jeszcze nie macie konta na GGPoker, zapoznajcie się z ofertą tego operatora (tutaj) albo od razu zarejestrujcie się (z tego linku).

GGPoker - baner

The post GGPoker: W weekend rusza Bounty Hunter Series Online (40M$ GTD) appeared first on PokerGround.com.

Powered by WPeMatico